• In Uzbekistan
  • List of Countries
  • For 7 days
  • Water Temperature
  • Satellite Maps
  • Weather Map
  • Weather Widgets
  • user-avatar
    Login

    Hourly Weather Olszowa

    Today, 22 July, Sunday

    Time Temperature Precipitation Wind Pressure Humidity
    00:00 +18°C° 0 mm 1 mps 724 mmHg 78%
    01:00 +18°C° 0 mm 1 mps 724 mmHg 83%
    02:00 +16°C° 0 mm 1 mps 724 mmHg 85%
    03:00 +16°C° 0 mm 1 mps 724 mmHg 86%
    04:00 +16°C° 0 mm 1 mps 724 mmHg 87%
    05:00 +19°C° 0 mm 1 mps 724 mmHg 82%
    06:00 +20°C° 0 mm 1 mps 724 mmHg 77%
    07:00 +22°C° 0 mm 1 mps 724 mmHg 71%
    08:00 +23°C° 0.2 mm 1 mps 724 mmHg 70%
    09:00 +25°C° 0.2 mm 1 mps 724 mmHg 68%
    10:00 +26°C° 0.2 mm 2 mps 724 mmHg 67%
    11:00 +26°C° 1 mm 2 mps 724 mmHg 67%
    12:00 +26°C° 1 mm 2 mps 724 mmHg 66%
    13:00 +27°C° 0 mm 2 mps 724 mmHg 62%
    14:00 +27°C° 0.8 mm 2 mps 724 mmHg 63%
    15:00 +27°C° 0.8 mm 2 mps 724 mmHg 64%
    16:00 +26°C° 0.8 mm 2 mps 724 mmHg 65%
    17:00 +25°C° 0.4 mm 2 mps 723 mmHg 69%
    18:00 +24°C° 0.4 mm 1 mps 723 mmHg 74%
    19:00 +22°C° 0.4 mm 1 mps 723 mmHg 78%
    20:00 +21°C° 0.3 mm 1 mps 723 mmHg 80%
    21:00 +21°C° 0.3 mm 1 mps 724 mmHg 81%
    22:00 +20°C° 0.3 mm 1 mps 724 mmHg 83%
    23:00 +19°C° 0 mm 1 mps 724 mmHg 84%

    Tomorrow, 23 July, Monday

    Time Temperature Precipitation Wind Pressure Humidity
    00:00 +19°C° 0 mm 1 mps 724 mmHg 85%
    01:00 +18°C° 0 mm 1 mps 724 mmHg 87%
    02:00 +18°C° 0 mm 1 mps 724 mmHg 88%
    03:00 +18°C° 0 mm 1 mps 724 mmHg 89%
    04:00 +16°C° 0 mm 1 mps 724 mmHg 90%
    05:00 +19°C° 0 mm 1 mps 724 mmHg 87%
    06:00 +20°C° 0 mm 1 mps 724 mmHg 84%
    07:00 +20°C° 0 mm 2 mps 724 mmHg 81%
    08:00 +23°C° 0.2 mm 2 mps 724 mmHg 75%
    09:00 +24°C° 0.2 mm 3 mps 724 mmHg 69%
    10:00 +25°C° 0.2 mm 4 mps 725 mmHg 63%
    11:00 +26°C° 0.4 mm 4 mps 724 mmHg 62%
    12:00 +26°C° 0.4 mm 4 mps 724 mmHg 61%
    13:00 +26°C° 0.4 mm 4 mps 724 mmHg 61%
    14:00 +26°C° 0.5 mm 4 mps 724 mmHg 63%
    15:00 +26°C° 0.5 mm 4 mps 724 mmHg 66%
    16:00 +26°C° 0.5 mm 4 mps 724 mmHg 68%
    17:00 +24°C° 0.3 mm 3 mps 724 mmHg 73%
    18:00 +22°C° 0.3 mm 3 mps 724 mmHg 77%
    19:00 +21°C° 0.3 mm 3 mps 724 mmHg 81%
    20:00 +20°C° 0.2 mm 3 mps 724 mmHg 84%
    21:00 +19°C° 0.2 mm 3 mps 725 mmHg 86%
    22:00 +18°C° 0.2 mm 3 mps 725 mmHg 88%
    23:00 +18°C° 0.2 mm 3 mps 725 mmHg 90%

    Day after tomorrow, 24 July, Tuesday

    Time Temperature Precipitation Wind Pressure Humidity
    00:00 +18°C° 0.2 mm 3 mps 724 mmHg 91%
    01:00 +17°C° 0.2 mm 3 mps 724 mmHg 93%
    02:00 +17°C° 0 mm 3 mps 724 mmHg 94%
    03:00 +17°C° 0 mm 3 mps 724 mmHg 95%
    04:00 +16°C° 0 mm 3 mps 724 mmHg 95%
    05:00 +17°C° 0 mm 3 mps 725 mmHg 92%
    06:00 +18°C° 0 mm 3 mps 725 mmHg 89%
    07:00 +19°C° 0 mm 4 mps 725 mmHg 86%
    08:00 +20°C° 0.1 mm 4 mps 725 mmHg 81%
    09:00 +22°C° 0.1 mm 4 mps 725 mmHg 75%
    10:00 +23°C° 0.1 mm 5 mps 726 mmHg 70%
    11:00 +25°C° 0.2 mm 5 mps 725 mmHg 66%
    12:00 +26°C° 0.2 mm 5 mps 725 mmHg 62%
    13:00 +27°C° 0.2 mm 5 mps 725 mmHg 58%
    14:00 +27°C° 0.1 mm 5 mps 725 mmHg 59%
    15:00 +26°C° 0.1 mm 5 mps 725 mmHg 60%
    16:00 +26°C° 0.1 mm 4 mps 724 mmHg 61%
    17:00 +25°C° 0.1 mm 4 mps 724 mmHg 66%
    18:00 +24°C° 0.1 mm 3 mps 724 mmHg 72%
    19:00 +21°C° 0.1 mm 3 mps 724 mmHg 77%
    20:00 +20°C° 0 mm 2 mps 725 mmHg 80%
    21:00 +19°C° 0 mm 2 mps 725 mmHg 83%
    22:00 +18°C° 0 mm 2 mps 725 mmHg 85%
    23:00 +18°C° 0 mm 2 mps 725 mmHg 87%

    25 July, Wednesday

    Time Temperature Precipitation Wind Pressure Humidity
    00:00 +17°C° 0 mm 2 mps 724 mmHg 89%
    01:00 +17°C° 0 mm 2 mps 724 mmHg 91%
    02:00 +16°C° 0 mm 2 mps 724 mmHg 92%
    03:00 +16°C° 0 mm 2 mps 724 mmHg 93%
    04:00 +16°C° 0 mm 1 mps 725 mmHg 94%
    05:00 +17°C° 0 mm 2 mps 725 mmHg 90%
    06:00 +19°C° 0 mm 2 mps 725 mmHg 86%
    07:00 +20°C° 0 mm 2 mps 725 mmHg 82%
    08:00 +21°C° 0 mm 3 mps 725 mmHg 76%
    09:00 +24°C° 0 mm 3 mps 725 mmHg 70%
    10:00 +25°C° 0 mm 3 mps 725 mmHg 63%
    11:00 +26°C° 0 mm 3 mps 725 mmHg 61%
    12:00 +26°C° 0 mm 3 mps 725 mmHg 58%
    13:00 +27°C° 0 mm 3 mps 725 mmHg 55%
    14:00 +27°C° 0.2 mm 4 mps 724 mmHg 56%
    15:00 +27°C° 0.2 mm 4 mps 724 mmHg 58%
    16:00 +27°C° 0.2 mm 4 mps 724 mmHg 59%
    17:00 +25°C° 0.3 mm 3 mps 724 mmHg 67%
    18:00 +24°C° 0.3 mm 2 mps 724 mmHg 75%
    19:00 +21°C° 0.3 mm 2 mps 724 mmHg 83%
    20:00 +20°C° 0 mm 2 mps 724 mmHg 86%
    21:00 +19°C° 0 mm 2 mps 724 mmHg 89%
    22:00 +20°C° 0 mm 1 mps 724 mmHg 92%
    23:00 +19°C° 0 mm 1 mps 724 mmHg 93%

    26 July, Thursday

    Time Temperature Precipitation Wind Pressure Humidity
    00:00 +19°C° 0 mm 1 mps 724 mmHg 94%
    01:00 +19°C° 0 mm 1 mps 724 mmHg 95%
    02:00 +18°C° 0 mm 1 mps 724 mmHg 95%
    03:00 +18°C° 0 mm 1 mps 724 mmHg 96%
    04:00 +18°C° 0 mm 1 mps 724 mmHg 96%
    05:00 +19°C° 0 mm 1 mps 725 mmHg 94%
    06:00 +20°C° 0 mm 1 mps 725 mmHg 91%
    07:00 +21°C° 0 mm 1 mps 725 mmHg 89%
    08:00 +22°C° 0.2 mm 1 mps 725 mmHg 86%
    09:00 +23°C° 0.2 mm 2 mps 725 mmHg 83%
    10:00 +24°C° 0.2 mm 2 mps 725 mmHg 80%
    11:00 +25°C° 0.1 mm 2 mps 725 mmHg 73%
    12:00 +27°C° 0.1 mm 2 mps 725 mmHg 66%
    13:00 +28°C° 0.1 mm 2 mps 725 mmHg 59%
    14:00 +28°C° 0.1 mm 2 mps 725 mmHg 61%
    15:00 +28°C° 0.1 mm 2 mps 725 mmHg 63%
    16:00 +28°C° 0.1 mm 2 mps 725 mmHg 64%
    17:00 +26°C° 0.4 mm 1 mps 725 mmHg 70%
    18:00 +25°C° 0.4 mm 1 mps 725 mmHg 76%
    19:00 +22°C° 0.4 mm 0 mps 725 mmHg 82%
    20:00 +23°C° 0.1 mm 1 mps 725 mmHg 84%
    21:00 +22°C° 0.1 mm 1 mps 725 mmHg 87%
    22:00 +21°C° 0.1 mm 1 mps 725 mmHg 89%
    23:00 +21°C° 0 mm 1 mps 725 mmHg 90%

    27 July, Friday

    Time Temperature Precipitation Wind Pressure Humidity
    00:00 +20°C° 0 mm 1 mps 725 mmHg 91%
    01:00 +20°C° 0 mm 1 mps 725 mmHg 93%
    02:00 +20°C° 0.1 mm 1 mps 725 mmHg 93%
    03:00 +19°C° 0.1 mm 1 mps 725 mmHg 94%
    04:00 +19°C° 0.1 mm 1 mps 725 mmHg 94%
    05:00 +20°C° 0.1 mm 1 mps 725 mmHg 91%
    06:00 +22°C° 0.1 mm 1 mps 725 mmHg 88%
    07:00 +23°C° 0.1 mm 1 mps 726 mmHg 85%
    08:00 +25°C° 0 mm 1 mps 726 mmHg 78%
    09:00 +26°C° 0 mm 1 mps 726 mmHg 71%
    10:00 +28°C° 0 mm 1 mps 726 mmHg 65%
    11:00 +29°C° 0.3 mm 1 mps 725 mmHg 62%
    12:00 +29°C° 0.3 mm 1 mps 725 mmHg 60%
    13:00 +30°C° 0.3 mm 1 mps 725 mmHg 58%
    14:00 +30°C° 0.5 mm 1 mps 725 mmHg 60%
    15:00 +29°C° 0.5 mm 1 mps 725 mmHg 62%
    16:00 +29°C° 0.5 mm 1 mps 725 mmHg 64%
    17:00 +27°C° 0.7 mm 1 mps 725 mmHg 71%
    18:00 +26°C° 0.7 mm 1 mps 725 mmHg 77%
    19:00 +24°C° 0.7 mm 1 mps 725 mmHg 84%
    20:00 +23°C° 0 mm 1 mps 725 mmHg 86%
    21:00 +23°C° 0 mm 1 mps 725 mmHg 88%
    22:00 +20°C° 0 mm 0 mps 725 mmHg 89%
    23:00 +19°C° 0 mm 0 mps 725 mmHg 90%
    Show more